Regional Weather Roundup
Issued by NWS

Home | Current Version | Previous Version | Graphics & Text | Print | Product List | Glossary On
Versions: 1 2 3 4 5 6 7 8 9 10 11 12 13 14 15 16 17 18 19 20 21 22 23 24 25 26 27 28 29 30 31 32 33 34 35 36 37 38 39 40 41 42 43 44 45 46 47 48 49 50
000
ASUS43 KDTX 261010
RWRMI
MICHIGAN HOURLY REGIONAL WEATHER ROUNDUP
NATIONAL WEATHER SERVICE DETROIT/PONTIAC MI
600 AM EDT THU MAY 26 2016

NOTE: "FAIR" INDICATES FEW OR NO CLOUDS BELOW 12,000 FEET WITH NO
SIGNIFICANT WEATHER AND/OR OBSTRUCTION TO VISIBILITY.

MIZ047>049-052>055-059>063-066>070-074>076-081>083-261100-
SOUTHEAST LOWER MICHIGAN

CITY           SKY/WX    TMP DP  RH WIND       PRES   REMARKS
ADRIAN         CLOUDY    66  62  87 SW6       29.98F
ALMA           LGT RAIN  63  63  99 SW5       29.94S
ANN ARBOR      CLOUDY    64  63  96 S5        29.96F
BAD AXE        CLOUDY    65  60  83 CALM      29.95S
CARO           LGT RAIN  64  60  87 CALM      29.94S
DETROIT CITY   CLOUDY    70  61  73 S6        29.96F
DETROIT        CLOUDY    69  62  78 S6        29.97F
FLINT          CLOUDY    68  62  81 W3        29.96R
GROSSE ILE     CLOUDY    66  63  88 CALM      29.96F
HILLSDALE      PTCLDY    64  61  91 S3        29.99R
HOWELL         MOCLDY    64  63  96 CALM      29.97R

CITY           SKY/WX    TMP DP  RH WIND       PRES   REMARKS
JACKSON        CLOUDY    64  62  93 CALM      29.97R
LAMBERTVILLE   CLOUDY    69  63  81 CALM      29.98F
LANSING        CLOUDY    64  62  93 S3        29.96R
LAPEER         FAIR      66  60  82 CALM      29.95S
MASON          CLOUDY    64  61  91 E6        29.96S
MONROE         CLOUDY    66  64  91 S6        29.97F
MT. CLEMENS    CLOUDY    67  63  86 SE7       29.94F
PONTIAC        CLOUDY    67  62  84 CALM      29.96S
PORT HOPE        N/A     67  60  78 W5        29.92S
PORT HURON     CLOUDY    64  61  88 S3        29.97S
TRI CITIES     CLOUDY    64  60  87 S5        29.95R
MIDLAND        LGT RAIN  61  59  95 CALM      29.93S
TROY           LGT RAIN  69  64  83 S5        29.97S
SAGINAW HB     MOCLDY    63  59  88 S3        29.94S
$$
MIZ043>046-050>051-056>058-064>065-071>073-077>080-261100-
SOUTHWEST LOWER MICHIGAN

CITY           SKY/WX    TMP DP  RH WIND       PRES   REMARKS
BATTLE CREEK   PTCLDY    62  61  96 S8        29.97S
BENTON HARBOR  PTCLDY    65  62  90 SE6       29.92F
BIG RAPIDS     CLOUDY    63  62  97 CALM      29.91F
COLDWATER      PTCLDY    62  61  97 CALM      29.98S
FREMONT        FAIR      62  62 100 SE3       29.90F
HOLLAND        CLEAR     65  62  90 S8        29.91F
GRAND RAPIDS   MOCLDY    64  61  90 SE5       29.93S
IONIA          MOCLDY    63  62  96 S6        29.93S
KALAMAZOO      MOCLDY    65  62  90 S8        29.96S
LUDINGTON      PTCLDY    62  61  96 SE3       29.88F
MARSHALL       MOCLDY    63  62  95 CALM      29.97R
MOUNT PLEASANT RAIN      64  63  99 CALM      29.92F
MUSKEGON       PTCLDY    68  62  81 S13G21    29.89F
SOUTH HAVEN    PTCLDY    64  64  99 S6        29.92F
$$
MIZ016>042-261100-
NORTHERN LOWER MICHIGAN

CITY           SKY/WX    TMP DP  RH WIND       PRES   REMARKS
ALPENA         CLOUDY    55  52  89 NE5       29.92F
BEAVER ISLAND  CLOUDY    58  57  97 SE6       29.87F
BELLAIRE       CLOUDY    59  57  94 CALM      29.88F FOG
CADILLAC       MOCLDY    62  60  93 S3        29.91F
CHARLEVOIX     MOCLDY    61  60  97 SE5       29.90F
FRANKFORT      CLOUDY    65  63  94 SE3       29.86F
GAYLORD        CLOUDY    60  58  92 S3        29.90F
GRAYLING       CLOUDY    60  59  97 CALM      29.91F FOG
HARBOR SPRINGS LGT RAIN  60  58  96 CALM      29.89F
HOUGHTON LAKE  CLOUDY    63  59  87 W8        29.91F
MANISTEE       CLEAR     63  57  82 E5        29.88F
OSCODA         RAIN      58  53  85 N5        29.90F
PELLSTON       CLOUDY    59  57  93 CALM      29.90F
ROGERS CITY    DRIZZLE   56  53  89 CALM      29.93F
TRAVERSE CITY  CLOUDY    65  61  87 CALM      29.86F
$$
MIZ007>008-015-261100-
EASTERN UPPER MICHIGAN

CITY           SKY/WX    TMP DP  RH WIND       PRES   REMARKS
KINROSS          N/A     57  55  94 E13       29.92F
MACKINAC ISLAN CLOUDY    51  51 100 E13G23    29.91F
NEWBERRY       CLOUDY    57  56  97 SE8       29.87S
S. S. MARIE    LGT RAIN  57  53  86 E7        29.94F
MUNISING         N/A     62  60  93 S7        29.80F
$$
MIZ004>006-011>014-085-261100-
CENTRAL UPPER MICHIGAN

CITY           SKY/WX    TMP DP  RH WIND       PRES   REMARKS
MANISTIQUE     FOG       55  54  97 SE7       29.85F VSB 1/2
ESCANABA       CLOUDY    57  54  88 S8        29.83S
MENOMINEE      CLOUDY    59  58  96 SE5       29.84S FOG
SAWYER-GWINN   CLOUDY    59  58  96 S9        29.82S FOG
$$
MIZ001>003-009>011-084-261100-
WESTERN UPPER MICHIGAN

CITY           SKY/WX    TMP DP  RH WIND       PRES   REMARKS
IRON MOUNTAIN  CLOUDY    61  59  93 S3        29.81S FOG
HOUGHTON       FOG       52  50  93 NE5       29.82R VSB 1/4
COPPER HARBOR    N/A     51  51 100 SE3       29.82R
IRONWOOD       CLOUDY    54  54 100 CALM      29.79F
$$

ABBREVIATIONS USED IN REMARKS
   TC - TEMPERATURE IN CELSIUS
  WCI - WIND CHILL INDEX
   HX - HEAT INDEX
  VSB - VISIBILITY





USA.gov is the U.S. government's official web portal to all federal, state and local government web resources and services.